Time,TemperatureF,DewpointF,PressureIn,WindDirection,WindDirectionDegrees,WindSpeedMPH,WindSpeedGustMPH,Humidity,HourlyPrecipIn,Conditions,Clouds,dailyrainin,SoftwareType,DateUTC
2013-04-26 00:03:00,42.0,29.0,-100.00,West,275,0.0,1.0,59,0.00,,,-99.99,,2013-04-26 04:03:00,
2013-04-26 00:12:00,42.0,30.0,-100.00,SW,230,1.0,1.0,63,0.00,,,-99.99,,2013-04-26 04:12:00,
2013-04-26 00:23:00,41.0,31.0,-100.00,SSW,195,1.0,1.0,65,0.00,,,-99.99,,2013-04-26 04:23:00,
2013-04-26 00:32:00,40.0,31.0,-100.00,SSW,210,1.0,1.0,67,0.00,,,-99.99,,2013-04-26 04:32:00,
2013-04-26 00:43:00,40.0,30.0,-100.00,SW,230,1.0,1.0,69,0.00,,,-99.99,,2013-04-26 04:43:00,
2013-04-26 00:52:00,39.0,31.0,-100.00,SW,215,1.0,2.0,71,0.00,,,-99.99,,2013-04-26 04:52:00,
2013-04-26 01:02:00,40.0,30.0,-100.00,WSW,245,1.0,2.0,69,0.00,,,-99.99,,2013-04-26 05:02:00,
2013-04-26 01:12:00,40.0,30.0,-100.00,West,275,1.0,2.0,67,0.00,,,-99.99,,2013-04-26 05:12:00,
2013-04-26 01:22:00,39.0,30.0,-100.00,West,280,1.0,2.0,68,0.00,,,-99.99,,2013-04-26 05:22:00,
2013-04-26 01:32:00,39.0,29.0,-100.00,West,270,1.0,2.0,68,0.00,,,-99.99,,2013-04-26 05:32:00,
2013-04-26 01:42:00,39.0,31.0,-100.00,West,280,1.0,2.0,72,0.00,,,-99.99,,2013-04-26 05:42:00,
2013-04-26 01:52:00,39.0,31.0,-100.00,West,260,1.0,2.0,72,0.00,,,-99.99,,2013-04-26 05:52:00,
2013-04-26 02:02:00,38.0,31.0,-100.00,West,265,0.0,2.0,73,0.00,,,-99.99,,2013-04-26 06:02:00,
2013-04-26 02:11:00,38.0,31.0,-100.00,West,265,0.0,0.0,76,0.00,,,-99.99,,2013-04-26 06:11:00,
2013-04-26 02:21:00,38.0,31.0,-100.00,West,265,0.0,0.0,78,0.00,,,-99.99,,2013-04-26 06:21:00,
2013-04-26 02:32:00,37.0,31.0,-100.00,West,265,0.0,2.0,78,0.00,,,-99.99,,2013-04-26 06:32:00,
2013-04-26 02:42:00,37.0,31.0,-100.00,SE,125,0.0,1.0,79,0.00,,,-99.99,,2013-04-26 06:42:00,
2013-04-26 02:52:00,37.0,30.0,-100.00,NE,55,0.0,1.0,74,0.00,,,-99.99,,2013-04-26 06:52:00,
2013-04-26 03:01:00,37.0,30.0,-100.00,SE,125,0.0,0.0,78,0.00,,,-99.99,,2013-04-26 07:01:00,
2013-04-26 03:11:00,36.0,30.0,-100.00,SE,125,0.0,0.0,80,0.00,,,-99.99,,2013-04-26 07:11:00,
2013-04-26 03:22:00,36.0,31.0,-100.00,SE,125,0.0,0.0,80,0.00,,,-99.99,,2013-04-26 07:22:00,
2013-04-26 03:32:00,37.0,30.0,-100.00,East,100,0.0,1.0,74,0.00,,,-99.99,,2013-04-26 07:32:00,
2013-04-26 03:42:00,37.0,29.0,-100.00,East,100,0.0,0.0,71,0.00,,,-99.99,,2013-04-26 07:42:00,
2013-04-26 03:52:00,36.0,30.0,-100.00,NW,305,0.0,0.0,78,0.00,,,-99.99,,2013-04-26 07:52:00,
2013-04-26 04:02:00,36.0,30.0,-100.00,WNW,295,0.0,0.0,81,0.00,,,-99.99,,2013-04-26 08:02:00,
2013-04-26 04:11:00,36.0,30.0,-100.00,NNE,20,0.0,1.0,80,0.00,,,-99.99,,2013-04-26 08:11:00,
2013-04-26 04:22:00,35.0,30.0,-100.00,NW,325,1.0,2.0,82,0.00,,,-99.99,,2013-04-26 08:22:00,
2013-04-26 04:32:00,34.0,31.0,-100.00,NNW,335,0.0,1.0,86,0.00,,,-99.99,,2013-04-26 08:32:00,
2013-04-26 04:42:00,34.0,31.0,-100.00,NW,320,0.0,2.0,88,0.00,,,-99.99,,2013-04-26 08:42:00,
2013-04-26 04:52:00,34.0,30.0,-100.00,WNW,295,1.0,1.0,88,0.00,,,-99.99,,2013-04-26 08:52:00,
2013-04-26 05:02:00,34.0,31.0,-100.00,North,350,0.0,1.0,89,0.00,,,-99.99,,2013-04-26 09:02:00,
2013-04-26 05:11:00,34.0,31.0,-100.00,NNE,15,0.0,2.0,88,0.00,,,-99.99,,2013-04-26 09:11:00,
2013-04-26 05:21:00,34.0,30.0,-100.00,West,275,0.0,2.0,88,0.00,,,-99.99,,2013-04-26 09:21:00,
2013-04-26 05:33:00,34.0,30.0,-100.00,NE,35,0.0,1.0,88,0.00,,,-99.99,,2013-04-26 09:33:00,
2013-04-26 05:43:00,34.0,31.0,-100.00,East,80,0.0,1.0,89,0.00,,,-99.99,,2013-04-26 09:43:00,
2013-04-26 05:53:00,33.0,30.0,-100.00,SSW,210,0.0,0.0,89,0.00,,,-99.99,,2013-04-26 09:53:00,
2013-04-26 06:03:00,34.0,31.0,-100.00,NE,35,0.0,1.0,88,0.00,,,-99.99,,2013-04-26 10:03:00,
2013-04-26 06:12:00,33.0,30.0,-100.00,NNE,30,1.0,2.0,89,0.00,,,-99.99,,2013-04-26 10:12:00,
2013-04-26 06:23:00,33.0,30.0,-100.00,NE,35,1.0,2.0,90,0.00,,,-99.99,,2013-04-26 10:23:00,
2013-04-26 06:33:00,33.0,30.0,-100.00,NE,45,1.0,2.0,90,0.00,,,-99.99,,2013-04-26 10:33:00,
2013-04-26 06:42:00,33.0,30.0,-100.00,NE,35,1.0,2.0,89,0.00,,,-99.99,,2013-04-26 10:42:00,
2013-04-26 06:52:00,33.0,30.0,-100.00,North,0,0.0,1.0,89,0.00,,,-99.99,,2013-04-26 10:52:00,
2013-04-26 07:02:00,33.0,30.0,-100.00,NE,40,0.0,1.0,88,0.00,,,-99.99,,2013-04-26 11:02:00,
2013-04-26 07:11:00,33.0,30.0,-100.00,NE,45,1.0,2.0,87,0.00,,,-99.99,,2013-04-26 11:11:00,
2013-04-26 07:22:00,33.0,30.0,-100.00,North,10,0.0,2.0,87,0.00,,,-99.99,,2013-04-26 11:22:00,
2013-04-26 07:32:00,34.0,30.0,-100.00,NNE,20,1.0,1.0,86,0.00,,,-99.99,,2013-04-26 11:32:00,
2013-04-26 07:42:00,35.0,31.0,-100.00,ENE,60,1.0,2.0,85,0.00,,,-99.99,,2013-04-26 11:42:00,
2013-04-26 07:52:00,35.0,31.0,-100.00,ENE,65,1.0,2.0,85,0.00,,,-99.99,,2013-04-26 11:52:00,
2013-04-26 08:02:00,36.0,31.0,-100.00,SSE,150,0.0,2.0,84,0.00,,,-99.99,,2013-04-26 12:02:00,
2013-04-26 08:11:00,37.0,31.0,-100.00,NE,55,1.0,2.0,80,0.00,,,-99.99,,2013-04-26 12:11:00,
2013-04-26 08:21:00,37.0,31.0,-100.00,East,85,1.0,4.0,79,0.00,,,-99.99,,2013-04-26 12:21:00,
2013-04-26 08:32:00,38.0,31.0,-100.00,NNE,25,1.0,3.0,77,0.00,,,-99.99,,2013-04-26 12:32:00,
2013-04-26 08:42:00,39.0,32.0,-100.00,ENE,60,1.0,3.0,74,0.00,,,-99.99,,2013-04-26 12:42:00,
2013-04-26 08:52:00,40.0,32.0,-100.00,ENE,65,1.0,3.0,73,0.00,,,-99.99,,2013-04-26 12:52:00,
2013-04-26 09:01:00,41.0,33.0,-100.00,NNE,15,1.0,4.0,71,0.00,,,-99.99,,2013-04-26 13:01:00,
2013-04-26 09:11:00,42.0,33.0,-100.00,NE,45,2.0,4.0,68,0.00,,,-99.99,,2013-04-26 13:11:00,
2013-04-26 09:22:00,44.0,34.0,-100.00,ENE,75,1.0,2.0,68,0.00,,,-99.99,,2013-04-26 13:22:00,
2013-04-26 09:32:00,45.0,33.0,-100.00,NE,50,2.0,4.0,64,0.00,,,-99.99,,2013-04-26 13:32:00,
2013-04-26 09:42:00,46.0,34.0,-100.00,East,90,1.0,4.0,61,0.00,,,-99.99,,2013-04-26 13:42:00,
2013-04-26 09:52:00,47.0,34.0,-100.00,East,85,1.0,3.0,60,0.00,,,-99.99,,2013-04-26 13:52:00,
2013-04-26 10:01:00,48.0,35.0,-100.00,East,100,1.0,3.0,59,0.00,,,-99.99,,2013-04-26 14:01:00,
2013-04-26 10:11:00,49.0,35.0,-100.00,ESE,110,4.0,5.0,58,0.00,,,-99.99,,2013-04-26 14:11:00,
2013-04-26 10:21:00,50.0,35.0,-100.00,ESE,115,3.0,6.0,55,0.00,,,-99.99,,2013-04-26 14:21:00,
2013-04-26 10:32:00,50.0,32.0,-100.00,ESE,115,4.0,7.0,49,0.00,,,-99.99,,2013-04-26 14:32:00,
2013-04-26 10:42:00,51.0,31.0,-100.00,East,100,6.0,9.0,47,0.00,,,-99.99,,2013-04-26 14:42:00,
2013-04-26 10:51:00,51.0,31.0,-100.00,ESE,120,6.0,9.0,47,0.00,,,-99.99,,2013-04-26 14:51:00,
2013-04-26 11:01:00,51.0,29.0,-100.00,SE,140,4.0,9.0,43,0.00,,,-99.99,,2013-04-26 15:01:00,
2013-04-26 11:12:00,51.0,32.0,-100.00,East,85,4.0,9.0,47,0.00,,,-99.99,,2013-04-26 15:12:00,
2013-04-26 11:21:00,53.0,30.0,-100.00,SE,140,5.0,8.0,41,0.00,,,-99.99,,2013-04-26 15:21:00,
2013-04-26 11:33:00,52.0,31.0,-100.00,SSE,150,2.0,6.0,44,0.00,,,-99.99,,2013-04-26 15:33:00,
2013-04-26 11:43:00,52.0,30.0,-100.00,ESE,120,1.0,9.0,42,0.00,,,-99.99,,2013-04-26 15:43:00,
2013-04-26 11:53:00,54.0,32.0,-100.00,ESE,110,5.0,9.0,43,0.00,,,-99.99,,2013-04-26 15:53:00,
2013-04-26 12:03:00,53.0,31.0,-100.00,East,95,3.0,7.0,43,0.00,,,-99.99,,2013-04-26 16:03:00,
2013-04-26 12:12:00,53.0,31.0,-100.00,ESE,115,5.0,12.0,43,0.00,,,-99.99,,2013-04-26 16:12:00,
2013-04-26 12:23:00,55.0,33.0,-100.00,SSE,150,4.0,11.0,44,0.00,,,-99.99,,2013-04-26 16:23:00,
2013-04-26 12:33:00,55.0,32.0,-100.00,West,270,1.0,7.0,42,0.00,,,-99.99,,2013-04-26 16:33:00,
2013-04-26 12:42:00,55.0,30.0,-100.00,SE,135,6.0,9.0,38,0.00,,,-99.99,,2013-04-26 16:42:00,
2013-04-26 12:52:00,54.0,32.0,-100.00,South,190,4.0,9.0,42,0.00,,,-99.99,,2013-04-26 16:52:00,
2013-04-26 13:02:00,55.0,32.0,-100.00,SSW,195,2.0,6.0,41,0.00,,,-99.99,,2013-04-26 17:02:00,
2013-04-26 13:12:00,56.0,33.0,-100.00,SE,125,6.0,9.0,41,0.00,,,-99.99,,2013-04-26 17:12:00,
2013-04-26 13:22:00,57.0,33.0,-100.00,ENE,60,2.0,8.0,41,0.00,,,-99.99,,2013-04-26 17:22:00,
2013-04-26 13:32:00,56.0,32.0,-100.00,ESE,115,6.0,9.0,41,0.00,,,-99.99,,2013-04-26 17:32:00,
2013-04-26 13:42:00,55.0,30.0,-100.00,NE,35,2.0,7.0,38,0.00,,,-99.99,,2013-04-26 17:42:00,
2013-04-26 13:51:00,56.0,31.0,-100.00,ESE,105,4.0,9.0,38,0.00,,,-99.99,,2013-04-26 17:51:00,
2013-04-26 14:02:00,57.0,32.0,-100.00,SW,215,2.0,8.0,38,0.00,,,-99.99,,2013-04-26 18:02:00,
2013-04-26 14:12:00,56.0,34.0,-100.00,NW,320,4.0,6.0,42,0.00,,,-99.99,,2013-04-26 18:12:00,
2013-04-26 14:22:00,57.0,32.0,-100.00,WNW,300,2.0,9.0,39,0.00,,,-99.99,,2013-04-26 18:22:00,
2013-04-26 14:33:00,57.0,33.0,-100.00,SE,135,1.0,6.0,40,0.00,,,-99.99,,2013-04-26 18:33:00,
2013-04-26 14:42:00,58.0,34.0,-100.00,East,80,4.0,7.0,39,0.00,,,-99.99,,2013-04-26 18:42:00,
2013-04-26 14:52:00,59.0,36.0,-100.00,SW,230,1.0,4.0,41,0.00,,,-99.99,,2013-04-26 18:52:00,
2013-04-26 15:01:00,58.0,32.0,-100.00,SSE,165,4.0,9.0,37,0.00,,,-99.99,,2013-04-26 19:01:00,
2013-04-26 15:12:00,57.0,34.0,-100.00,NW,310,2.0,6.0,41,0.00,,,-99.99,,2013-04-26 19:12:00,
2013-04-26 15:22:00,59.0,32.0,-100.00,ESE,120,2.0,4.0,36,0.00,,,-99.99,,2013-04-26 19:22:00,
2013-04-26 15:32:00,60.0,32.0,-100.00,ESE,115,1.0,8.0,35,0.00,,,-99.99,,2013-04-26 19:32:00,
2013-04-26 15:41:00,59.0,33.0,-100.00,NNE,20,2.0,7.0,38,0.00,,,-99.99,,2013-04-26 19:41:00,
2013-04-26 15:52:00,59.0,32.0,-100.00,NE,45,2.0,6.0,35,0.00,,,-99.99,,2013-04-26 19:52:00,
2013-04-26 16:02:00,61.0,35.0,-100.00,SE,135,4.0,7.0,38,0.00,,,-99.99,,2013-04-26 20:02:00,
2013-04-26 16:11:00,60.0,35.0,-100.00,SE,140,3.0,6.0,38,0.00,,,-99.99,,2013-04-26 20:11:00,
2013-04-26 16:21:00,59.0,34.0,-100.00,SSW,200,2.0,7.0,38,0.00,,,-99.99,,2013-04-26 20:21:00,
2013-04-26 16:32:00,61.0,35.0,-100.00,ESE,115,3.0,6.0,37,0.00,,,-99.99,,2013-04-26 20:32:00,
2013-04-26 16:42:00,60.0,31.0,-100.00,East,85,2.0,8.0,33,0.00,,,-99.99,,2013-04-26 20:42:00,
2013-04-26 16:52:00,60.0,32.0,-100.00,ESE,105,2.0,10.0,34,0.00,,,-99.99,,2013-04-26 20:52:00,
2013-04-26 17:02:00,60.0,31.0,-100.00,East,95,2.0,7.0,33,0.00,,,-99.99,,2013-04-26 21:02:00,
2013-04-26 17:11:00,62.0,33.0,-100.00,SE,140,1.0,7.0,33,0.00,,,-99.99,,2013-04-26 21:11:00,
2013-04-26 17:22:00,62.0,33.0,-100.00,SE,130,3.0,8.0,34,0.00,,,-99.99,,2013-04-26 21:22:00,
2013-04-26 17:33:00,61.0,35.0,-100.00,East,100,6.0,8.0,36,0.00,,,-99.99,,2013-04-26 21:33:00,
2013-04-26 17:42:00,62.0,33.0,-100.00,ESE,110,1.0,7.0,34,0.00,,,-99.99,,2013-04-26 21:42:00,
2013-04-26 17:52:00,62.0,33.0,-100.00,ESE,115,4.0,7.0,33,0.00,,,-99.99,,2013-04-26 21:52:00,
2013-04-26 18:03:00,61.0,33.0,-100.00,SSE,150,2.0,7.0,35,0.00,,,-99.99,,2013-04-26 22:03:00,
2013-04-26 18:12:00,62.0,34.0,-100.00,NW,315,1.0,2.0,35,0.00,,,-99.99,,2013-04-26 22:12:00,
2013-04-26 18:23:00,62.0,33.0,-100.00,NNE,20,2.0,5.0,33,0.00,,,-99.99,,2013-04-26 22:23:00,
2013-04-26 18:33:00,62.0,32.0,-100.00,ESE,105,4.0,6.0,32,0.00,,,-99.99,,2013-04-26 22:33:00,
2013-04-26 18:42:00,62.0,31.0,-100.00,NNE,15,1.0,7.0,32,0.00,,,-99.99,,2013-04-26 22:42:00,
2013-04-26 18:52:00,61.0,31.0,-100.00,NE,45,2.0,6.0,32,0.00,,,-99.99,,2013-04-26 22:52:00,
2013-04-26 19:02:00,62.0,33.0,-100.00,East,85,1.0,3.0,33,0.00,,,-99.99,,2013-04-26 23:02:00,
2013-04-26 19:12:00,61.0,32.0,-100.00,SE,130,2.0,5.0,33,0.00,,,-99.99,,2013-04-26 23:12:00,
2013-04-26 19:21:00,61.0,32.0,-100.00,SE,140,1.0,4.0,33,0.00,,,-99.99,,2013-04-26 23:21:00,
2013-04-26 19:32:00,61.0,31.0,-100.00,East,80,1.0,2.0,32,0.00,,,-99.99,,2013-04-26 23:32:00,
2013-04-26 19:42:00,60.0,31.0,-100.00,ENE,75,1.0,4.0,33,0.00,,,-99.99,,2013-04-26 23:42:00,
2013-04-26 19:52:00,60.0,31.0,-100.00,ESE,110,0.0,2.0,33,0.00,,,-99.99,,2013-04-26 23:52:00,
2013-04-26 20:01:00,60.0,31.0,-100.00,NNE,30,1.0,2.0,33,0.00,,,-99.99,,2013-04-27 00:01:00,
2013-04-26 20:11:00,60.0,31.0,-100.00,NE,55,1.0,3.0,34,0.00,,,-99.99,,2013-04-27 00:11:00,
2013-04-26 20:21:00,59.0,31.0,-100.00,NE,45,1.0,3.0,34,0.00,,,-99.99,,2013-04-27 00:21:00,
2013-04-26 20:32:00,59.0,32.0,-100.00,NNE,25,1.0,2.0,36,0.00,,,-99.99,,2013-04-27 00:32:00,
2013-04-26 20:42:00,59.0,32.0,-100.00,ENE,65,1.0,2.0,36,0.00,,,-99.99,,2013-04-27 00:42:00,
2013-04-26 20:51:00,58.0,33.0,-100.00,ENE,60,1.0,3.0,38,0.00,,,-99.99,,2013-04-27 00:51:00,
2013-04-26 21:01:00,57.0,33.0,-100.00,East,80,1.0,3.0,40,0.00,,,-99.99,,2013-04-27 01:01:00,
2013-04-26 21:12:00,57.0,34.0,-100.00,NE,55,0.0,2.0,41,0.00,,,-99.99,,2013-04-27 01:12:00,
2013-04-26 21:21:00,56.0,34.0,-100.00,NNE,15,1.0,2.0,42,0.00,,,-99.99,,2013-04-27 01:21:00,
2013-04-26 21:32:00,55.0,34.0,-100.00,NE,55,0.0,2.0,44,0.00,,,-99.99,,2013-04-27 01:32:00,
2013-04-26 21:42:00,54.0,35.0,-100.00,ENE,70,1.0,1.0,49,0.00,,,-99.99,,2013-04-27 01:42:00,
2013-04-26 21:52:00,53.0,36.0,-100.00,East,80,1.0,2.0,52,0.00,,,-99.99,,2013-04-27 01:52:00,
2013-04-26 22:02:00,53.0,36.0,-100.00,East,80,1.0,2.0,52,0.00,,,-99.99,,2013-04-27 02:02:00,
2013-04-26 22:11:00,53.0,35.0,-100.00,NNW,345,0.0,1.0,51,0.00,,,-99.99,,2013-04-27 02:11:00,
2013-04-26 22:22:00,52.0,36.0,-100.00,NNE,20,0.0,1.0,54,0.00,,,-99.99,,2013-04-27 02:22:00,
2013-04-26 22:32:00,51.0,38.0,-100.00,NNE,30,1.0,2.0,61,0.00,,,-99.99,,2013-04-27 02:32:00,
2013-04-26 22:42:00,51.0,38.0,-100.00,ENE,60,1.0,2.0,61,0.00,,,-99.99,,2013-04-27 02:42:00,
2013-04-26 22:52:00,49.0,36.0,-100.00,NE,50,1.0,3.0,60,0.00,,,-99.99,,2013-04-27 02:52:00,
2013-04-26 23:02:00,49.0,36.0,-100.00,North,5,0.0,2.0,62,0.00,,,-99.99,,2013-04-27 03:02:00,
2013-04-26 23:11:00,48.0,37.0,-100.00,NNW,330,0.0,1.0,65,0.00,,,-99.99,,2013-04-27 03:11:00,
2013-04-26 23:22:00,48.0,38.0,-100.00,NW,320,0.0,1.0,67,0.00,,,-99.99,,2013-04-27 03:22:00,
2013-04-26 23:33:00,48.0,39.0,-100.00,NNW,340,0.0,2.0,71,0.00,,,-99.99,,2013-04-27 03:33:00,
2013-04-26 23:43:00,47.0,37.0,-100.00,NNE,15,1.0,2.0,68,0.00,,,-99.99,,2013-04-27 03:43:00,
2013-04-26 23:53:00,47.0,37.0,-100.00,ENE,60,0.0,1.0,68,0.00,,,-99.99,,2013-04-27 03:53:00,